Regional Weather Roundup
Issued by NWS Cleveland, OH

Home | Current Version | Previous Version | Graphics & Text | Print | Product List | Glossary On
Versions: 1 2 3 4 5 6 7 8 9 10 11 12 13 14 15 16 17 18 19 20 21 22 23 24 25 26 27 28 29 30 31 32 33 34 35 36 37 38 39 40 41 42 43 44 45 46 47 48 49 50
000
ASUS41 KCLE 260912
RWRCLE
OHIO REGIONAL WEATHER ROUNDUP
NATIONAL WEATHER SERVICE WILMINGTON, OH
500 AM EDT THU MAY 26 2016

NOTE: "FAIR" INDICATES FEW OR NO CLOUDS BELOW 12,000 FEET WITH NO
SIGNIFICANT WEATHER AND/OR OBSTRUCTIONS TO VISIBILITY.

OHZ001>008-015>018-024>027-034-035-043-044-261000-
   NORTHWEST OHIO

CITY           SKY/WX    TMP DP  RH WIND       PRES   REMARKS
DEFIANCE       MOCLDY    69  62  78 S5        29.99F
FINDLAY        FAIR      66  59  78 S7        30.01S
TOLEDO EXPRESS FAIR      69  61  75 SW6       29.99S
TOLEDO EXEC    FAIR      69  61  75 S8        30.00S
LIMA           FAIR      67  61  81 S9        30.03R
$$

OHZ009>014-019>023-028>033-038-089-261000-
   NORTHEAST OHIO

CITY           SKY/WX    TMP DP  RH WIND       PRES   REMARKS
CLE-HOPKINS    CLOUDY    71  59  65 S9        30.05S
CLE-LAKEFRONT  FAIR      71  59  65 S10       30.01S
CUY CO. ARPT   NOT AVBL
LORAIN-ELYRIA  FAIR      65  59  81 S6        30.04R
ASHTABULA      MOCLDY    66  56  70 S7        30.06S
AKRON-CANTON   FAIR      66  59  78 S7        30.07S
WOOSTER        FAIR      64  59  83 S7        30.07S
MANSFIELD      FAIR      66  62  87 S8        30.06S
YOUNGSTOWN     CLOUDY    69  56  62 S7        30.07S
$$

OHZ042-051>053-060>062-070>072-077>081-261000-
  SOUTHWEST OHIO

CITY           SKY/WX    TMP DP  RH WIND       PRES   REMARKS
CINC-COVINGTON CLOUDY    67  62  84 S5        30.06F
CINC-LUNKEN    FAIR      64  64 100 CALM      30.06F
HAMILTON       FAIR      68  63  84 CALM      30.07R
DAYTON         MOCLDY    67  63  87 S9        30.06S
WRIGHT-PAT AFB FAIR      68  65  91 S6        30.06R
DAYTON GENERAL FAIR      65  61  87 S5        30.06S
WILMINGTON     FAIR      65  62  90 SW3       30.07S
$$

OHZ036-037-039>041-045>050-054>059-063>069-073>076-082>088-261000-
  CENTRAL AND SOUTHEAST OHIO

CITY           SKY/WX    TMP DP  RH WIND       PRES   REMARKS
COLUMBUS       CLOUDY    66  62  87 S6        30.06S
OSU AIRPORT    NOT AVBL
BOLTON FIELD   FAIR      65  63  93 SW6       30.07S
RICKENBACK AFB CLOUDY    65  62  88 S6        30.06S
NEWARK         FAIR      61  58  90 CALM      30.06S
MARION           N/A    N/A N/A N/A MISG      30.04F
LANCASTER      FAIR      66  61  84 S6        30.07S
ZANESVILLE     CLOUDY    68  60  75 S5        30.08S
NEW PHILLY     MOCLDY    69  59  70 SE3       30.08S
$$




USA.gov is the U.S. government's official web portal to all federal, state and local government web resources and services.